�������l�o���
Date,Time,MP-1(��Sv/h),MP-2(��Sv/h),MP-3(��Sv/h),MP-4(��Sv/h),MP-5(��Sv/h),MP-6(��Sv/h),MP-7(��Sv/h),MP-8(��Sv/h),����,����(m/s),���J
2019/11/28,00:00,0.695,0.995,0.671,1.234,0.872,0.404,0.708,0.672,�k�k��,3.9,�L
2019/11/28,00:10,0.695,0.996,0.669,1.235,0.873,0.406,0.706,0.673,�k�k��,3.9,�L
2019/11/28,00:20,0.695,0.995,0.670,1.234,0.874,0.406,0.705,0.672,�k�k��,3.1,�L
2019/11/28,00:30,0.695,0.995,0.671,1.235,0.871,0.406,0.708,0.673,�k�k��,2.6,�L
2019/11/28,00:40,0.697,0.996,0.673,1.234,0.872,0.405,0.708,0.672,�k��,3.1,�L
2019/11/28,00:50,0.695,0.993,0.673,1.236,0.872,0.408,0.707,0.672,�k�k��,3.8,�L
2019/11/28,01:00,0.695,0.995,0.670,1.235,0.871,0.407,0.708,0.672,�k,3.8,�L
2019/11/28,01:10,0.694,0.995,0.671,1.237,0.872,0.405,0.709,0.672,�k,3.4,�L
2019/11/28,01:20,0.696,0.998,0.670,1.237,0.870,0.406,0.708,0.673,�k�k��,4.2,�L
2019/11/28,01:30,0.696,0.993,0.672,1.234,0.870,0.407,0.706,0.674,�k,6.0,�L
2019/11/28,01:40,0.697,0.995,0.670,1.235,0.872,0.407,0.707,0.672,�k,6.6,�L
2019/11/28,01:50,0.695,0.998,0.670,1.234,0.871,0.406,0.708,0.672,�k,7.4,�L
2019/11/28,02:00,0.696,0.994,0.672,1.235,0.871,0.407,0.707,0.671,�k�k��,7.7,�L
2019/11/28,02:10,0.695,0.995,0.670,1.237,0.871,0.407,0.705,0.671,�k�k��,7.1,�L
2019/11/28,02:20,0.694,0.997,0.672,1.236,0.871,0.406,0.709,0.673,�k�k��,7.1,�L
2019/11/28,02:30,0.696,0.997,0.670,1.238,0.872,0.406,0.707,0.671,�k�k��,7.1,��
2019/11/28,02:40,0.693,0.996,0.672,1.238,0.870,0.406,0.707,0.672,�k�k��,5.6,��
2019/11/28,02:50,0.695,0.992,0.671,1.237,0.870,0.408,0.707,0.670,�k��,6.0,��
2019/11/28,03:00,0.696,0.996,0.669,1.234,0.872,0.405,0.706,0.673,�k�k��,4.9,��
2019/11/28,03:10,0.696,0.996,0.672,1.234,0.870,0.407,0.707,0.671,�k�k��,6.9,��
2019/11/28,03:20,0.694,0.996,0.673,1.237,0.869,0.405,0.707,0.673,�k�k��,7.1,��
2019/11/28,03:30,0.694,0.995,0.671,1.235,0.870,0.405,0.707,0.672,�k�k��,7.4,��
2019/11/28,03:40,0.696,0.996,0.671,1.236,0.872,0.405,0.706,0.673,�k�k��,7.1,��
2019/11/28,03:50,0.695,0.994,0.670,1.235,0.872,0.406,0.708,0.672,�k,6.4,��
2019/11/28,04:00,0.693,0.995,0.671,1.237,0.870,0.404,0.706,0.670,�k�k��,7.1,��
2019/11/28,04:10,0.694,0.995,0.671,1.236,0.872,0.405,0.707,0.671,�k,6.9,��
2019/11/28,04:20,0.695,0.996,0.671,1.234,0.871,0.404,0.707,0.672,�k,6.3,��
2019/11/28,04:30,0.695,0.997,0.670,1.236,0.871,0.405,0.707,0.672,�k,6.9,��
2019/11/28,04:40,0.694,0.996,0.671,1.237,0.870,0.405,0.706,0.671,�k,6.4,��
2019/11/28,04:50,0.696,0.996,0.672,1.238,0.871,0.405,0.706,0.671,�k�k��,6.6,��
2019/11/28,05:00,0.696,0.995,0.672,1.238,0.872,0.406,0.707,0.673,�k,6.3,��
2019/11/28,05:10,0.694,0.994,0.668,1.236,0.871,0.404,0.706,0.673,�k,6.6,��
2019/11/28,05:20,0.695,0.996,0.671,1.237,0.871,0.405,0.706,0.672,�k,6.9,��
2019/11/28,05:30,0.696,0.998,0.671,1.237,0.873,0.404,0.706,0.672,�k,6.3,��
2019/11/28,05:40,0.696,0.998,0.670,1.238,0.872,0.404,0.707,0.671,�k,6.9,��
2019/11/28,05:50,0.695,0.996,0.672,1.237,0.872,0.405,0.707,0.672,�k,6.7,��
2019/11/28,06:00,0.694,0.996,0.674,1.236,0.870,0.405,0.707,0.671,�k�k��,7.1,��
2019/11/28,06:10,0.694,0.997,0.672,1.237,0.872,0.406,0.705,0.671,�k,7.4,��
2019/11/28,06:20,0.697,0.998,0.672,1.238,0.871,0.405,0.707,0.673,�k,7.2,��
2019/11/28,06:30,0.696,0.998,0.670,1.239,0.872,0.406,0.707,0.672,�k,7.4,��
2019/11/28,06:40,0.695,0.998,0.672,1.239,0.871,0.403,0.708,0.672,�k,6.9,��
2019/11/28,06:50,0.696,0.996,0.670,1.240,0.874,0.405,0.707,0.674,�k,6.0,��
2019/11/28,07:00,0.695,0.998,0.671,1.238,0.873,0.402,0.706,0.674,�k,5.0,��
2019/11/28,07:10,0.694,0.998,0.672,1.237,0.875,0.406,0.707,0.672,�k�k��,5.5,��
2019/11/28,07:20,0.694,0.999,0.672,1.239,0.874,0.403,0.706,0.675,�k,5.8,��
2019/11/28,07:30,0.695,0.997,0.672,1.236,0.874,0.403,0.707,0.672,�k�k��,5.6,��
2019/11/28,07:40,0.694,0.998,0.670,1.237,0.873,0.403,0.706,0.672,�k�k��,5.3,��
2019/11/28,07:50,0.696,0.999,0.672,1.241,0.874,0.404,0.709,0.671,�k�k��,5.5,��
2019/11/28,08:00,0.694,0.996,0.672,1.236,0.872,0.404,0.706,0.673,�k,4.6,��
2019/11/28,08:10,0.694,0.999,0.671,1.238,0.873,0.404,0.709,0.673,�k,5.6,��
2019/11/28,08:20,0.697,0.998,0.671,1.233,0.874,0.403,0.706,0.673,�k,5.2,��
2019/11/28,08:30,0.696,0.998,0.670,1.236,0.873,0.403,0.708,0.672,�k,4.4,��
2019/11/28,08:40,0.695,1.001,0.670,1.238,0.874,0.403,0.707,0.673,�k�k��,4.6,��
2019/11/28,08:50,0.698,0.998,0.671,1.236,0.875,0.404,0.709,0.672,�k,6.1,��
2019/11/28,09:00,0.697,0.997,0.670,1.240,0.875,0.403,0.708,0.672,�k�k��,6.3,��
2019/11/28,09:10,0.699,0.996,0.672,1.240,0.876,0.402,0.707,0.673,�k,6.7,��
2019/11/28,09:20,0.698,1.000,0.673,1.238,0.877,0.404,0.706,0.671,�k�k��,7.4,��
2019/11/28,09:30,0.697,0.997,0.673,1.238,0.878,0.404,0.707,0.673,�k�k��,9.9,��
2019/11/28,09:40,0.698,0.997,0.671,1.241,0.877,0.404,0.706,0.672,�k�k��,10.4,��
2019/11/28,09:50,0.699,0.997,0.672,1.240,0.874,0.405,0.706,0.674,�k�k��,8.5,��
2019/11/28,10:00,0.698,1.000,0.673,1.238,0.877,0.404,0.705,0.674,�k,6.7,��
2019/11/28,10:10,0.701,0.998,0.672,1.241,0.878,0.405,0.705,0.673,�k,9.1,��
2019/11/28,10:20,0.696,0.997,0.673,1.242,0.876,0.405,0.705,-,�k,8.9,��
2019/11/28,10:30,0.697,0.996,0.673,1.242,0.875,0.405,0.706,-,�k,7.8,��
2019/11/28,10:40,0.697,0.999,0.674,1.242,0.878,0.406,0.705,-,�k,7.1,��
2019/11/28,10:50,0.697,0.997,0.671,1.238,0.876,0.403,0.705,-,�k,8.0,��
2019/11/28,11:00,0.696,0.997,0.673,1.243,0.875,0.404,0.706,-,�k,9.6,��
2019/11/28,11:10,0.696,0.997,0.673,1.242,0.878,0.405,0.705,-,�k�k��,9.4,��
2019/11/28,11:20,0.698,0.998,0.675,1.242,0.878,0.404,0.705,-,�k�k��,9.6,��
2019/11/28,11:30,0.697,0.999,0.674,1.241,0.879,0.404,0.707,-,�k,8.5,��
2019/11/28,11:40,0.700,1.000,0.672,1.244,0.878,0.405,0.706,-,�k,8.6,��
2019/11/28,11:50,0.698,1.003,0.672,1.244,0.877,0.405,0.707,-,�k,8.5,��
2019/11/28,12:00,0.697,1.000,0.673,1.242,0.877,0.404,0.706,-,�k,7.7,��
2019/11/28,12:10,0.697,1.000,0.673,1.244,0.878,0.403,0.706,-,�k,7.7,��
2019/11/28,12:20,0.697,1.000,0.676,1.243,0.878,0.403,0.706,-,�k,8.0,��
2019/11/28,12:30,0.699,1.003,0.675,1.245,0.880,0.403,0.707,-,�k,6.9,��
2019/11/28,12:40,0.698,1.003,0.674,1.244,0.878,0.402,0.706,-,�k�k��,7.2,��
2019/11/28,12:50,0.697,1.002,0.674,1.242,0.876,0.404,0.707,-,�k�k��,7.1,��
2019/11/28,13:00,0.698,1.001,0.674,1.242,0.878,0.404,0.706,-,�k�k��,8.8,��
2019/11/28,13:10,0.698,1.005,0.673,1.244,0.879,0.404,0.708,-,�k�k��,8.5,��
2019/11/28,13:20,0.699,1.002,0.673,1.244,0.878,0.403,0.706,-,�k�k��,9.1,��
2019/11/28,13:30,0.697,1.001,0.673,1.244,0.878,0.405,0.707,-,�k�k��,7.5,��
2019/11/28,13:40,0.697,1.004,0.673,1.243,0.879,0.404,0.705,-,�k�k��,8.5,��
2019/11/28,13:50,0.693,1.000,0.672,1.244,0.880,0.403,0.705,-,�k�k��,8.5,��
2019/11/28,14:00,0.695,0.999,0.674,1.243,0.880,0.403,0.706,-,�k,7.8,��
2019/11/28,14:10,0.697,1.001,0.674,1.246,0.879,0.402,0.707,-,�k�k��,9.1,��
2019/11/28,14:20,0.697,1.005,0.671,1.245,0.878,0.403,0.706,-,�k�k��,8.6,��
2019/11/28,14:30,0.698,1.001,0.673,1.243,0.878,0.403,0.706,-,�k�k��,7.1,��
2019/11/28,14:40,0.696,1.002,0.675,1.244,0.879,0.403,0.707,-,�k�k��,7.5,��
2019/11/28,14:50,0.698,1.003,0.673,1.245,0.877,0.404,0.705,0.674,�k�k��,8.5,��
2019/11/28,15:00,0.695,1.002,0.675,1.246,0.878,0.404,0.708,0.674,�k�k��,7.1,��
2019/11/28,15:10,0.695,1.006,0.673,1.244,0.879,0.404,0.706,0.673,�k�k��,6.3,��
2019/11/28,15:20,0.697,1.007,0.674,1.246,0.878,0.403,0.708,0.671,�k�k��,6.3,��
2019/11/28,15:30,0.697,1.004,0.674,1.246,0.880,0.403,0.710,0.675,�k,5.3,��
2019/11/28,15:40,0.697,1.003,0.674,1.246,0.878,0.403,0.708,0.675,�k�k��,9.1,��
2019/11/28,15:50,0.697,1.004,0.675,1.245,0.881,0.404,0.708,0.674,�k�k��,7.4,��
2019/11/28,16:00,0.699,1.005,0.674,1.246,0.878,0.403,0.709,0.675,�k�k��,6.4,��
2019/11/28,16:10,0.697,1.006,0.675,1.245,0.878,0.404,0.709,0.674,�k�k��,6.0,��
2019/11/28,16:20,0.696,1.006,0.673,1.245,0.879,0.402,0.708,0.674,�k�k��,7.4,��
2019/11/28,16:30,0.695,1.008,0.673,1.244,0.880,0.402,0.708,0.673,�k�k��,5.2,��
2019/11/28,16:40,0.697,1.007,0.675,1.245,0.879,0.404,0.710,0.674,�k,6.4,��
2019/11/28,16:50,0.696,1.006,0.674,1.248,0.879,0.403,0.708,0.674,�k,6.6,��
2019/11/28,17:00,0.696,1.005,0.675,1.245,0.879,0.404,0.709,0.675,�k,6.9,��
2019/11/28,17:10,0.696,1.007,0.674,1.246,0.879,0.403,0.709,0.675,�k�k��,6.9,��
2019/11/28,17:20,0.695,1.007,0.676,1.245,0.881,0.403,0.708,0.673,�k,6.6,��
2019/11/28,17:30,0.695,1.005,0.674,1.245,0.881,0.403,0.710,0.675,�k,5.8,��
2019/11/28,17:40,0.696,1.009,0.675,1.246,0.881,0.403,0.709,0.675,�k�k��,6.0,��
2019/11/28,17:50,0.697,1.006,0.675,1.246,0.877,0.404,0.709,0.672,�k�k��,5.2,��
2019/11/28,18:00,0.695,1.005,0.674,1.244,0.881,0.404,0.708,0.674,�k,7.5,��
2019/11/28,18:10,0.696,1.005,0.675,1.246,0.879,0.405,0.709,0.674,�k�k��,7.1,��
2019/11/28,18:20,0.695,1.007,0.674,1.246,0.880,0.405,0.709,0.673,�k,6.3,��
2019/11/28,18:30,0.696,1.006,0.675,1.246,0.878,0.404,0.708,0.675,�k�k��,6.3,��
2019/11/28,18:40,0.695,1.006,0.675,1.245,0.881,0.404,0.708,0.673,�k�k��,6.6,��
2019/11/28,18:50,0.696,1.007,0.675,1.247,0.881,0.401,0.708,0.672,�k�k��,6.7,��
2019/11/28,19:00,0.695,1.007,0.675,1.245,0.879,0.402,0.708,0.673,�k,6.0,��
2019/11/28,19:10,0.695,1.006,0.674,1.246,0.880,0.403,0.708,0.675,�k�k��,6.7,��
2019/11/28,19:20,0.695,1.007,0.674,1.245,0.881,0.404,0.709,0.673,�k�k��,6.6,��
2019/11/28,19:30,0.695,1.006,0.674,1.249,0.880,0.402,0.709,0.675,�k,5.2,��
2019/11/28,19:40,0.695,1.007,0.674,1.245,0.880,0.403,0.708,0.674,�k�k��,6.9,��
2019/11/28,19:50,0.696,1.006,0.674,1.244,0.878,0.403,0.707,0.673,�k,7.1,��
2019/11/28,20:00,0.696,1.008,0.674,1.249,0.879,0.404,0.709,0.674,�k,6.3,��
2019/11/28,20:10,0.695,1.010,0.673,1.248,0.881,0.403,0.708,0.672,�k,5.6,��
2019/11/28,20:20,0.694,1.009,0.675,1.246,0.880,0.402,0.708,0.674,�k�k��,7.1,��
2019/11/28,20:30,0.696,1.007,0.674,1.247,0.880,0.402,0.708,0.673,�k,5.5,��
2019/11/28,20:40,0.696,1.007,0.674,1.245,0.881,0.404,0.708,0.672,�k,7.7,��
2019/11/28,20:50,0.694,1.007,0.676,1.246,0.879,0.403,0.709,0.672,�k�k��,6.9,��
2019/11/28,21:00,0.694,1.007,0.673,1.246,0.883,0.403,0.707,0.673,�k�k��,7.5,��
2019/11/28,21:10,0.695,1.004,0.673,1.244,0.880,0.403,0.709,0.674,�k�k��,6.1,��
2019/11/28,21:20,0.693,1.004,0.673,1.245,0.880,0.404,0.710,0.672,�k�k��,6.1,��
2019/11/28,21:30,0.693,1.006,0.674,1.247,0.880,0.402,0.710,0.674,�k�k��,6.4,��
2019/11/28,21:40,0.695,1.005,0.673,1.248,0.879,0.403,0.707,0.674,�k�k��,6.0,��
2019/11/28,21:50,0.695,1.005,0.674,1.248,0.878,0.403,0.707,0.672,�k�k��,6.3,��
2019/11/28,22:00,0.695,1.008,0.673,1.246,0.878,0.402,0.708,0.672,�k,6.3,��
2019/11/28,22:10,0.694,1.007,0.675,1.248,0.881,0.403,0.706,0.674,�k,7.7,��
2019/11/28,22:20,0.695,1.005,0.676,1.247,0.881,0.403,0.708,0.673,�k�k��,6.9,��
2019/11/28,22:30,0.695,1.007,0.673,1.247,0.879,0.403,0.709,0.673,�k�k��,7.4,��
2019/11/28,22:40,0.696,1.009,0.674,1.246,0.881,0.403,0.708,0.674,�k�k��,7.7,��
2019/11/28,22:50,0.695,1.008,0.674,1.249,0.881,0.404,0.708,0.671,�k�k��,6.6,��
2019/11/28,23:00,0.694,1.008,0.674,1.245,0.878,0.403,0.708,0.673,�k�k��,6.6,��
2019/11/28,23:10,0.695,1.009,0.674,1.246,0.879,0.404,0.708,0.672,�k�k��,7.8,��
2019/11/28,23:20,0.693,1.006,0.672,1.249,0.880,0.403,0.708,0.672,�k�k��,8.8,��
2019/11/28,23:30,0.694,1.006,0.674,1.250,0.879,0.403,0.708,0.672,�k�k��,7.1,��
2019/11/28,23:40,0.694,1.007,0.674,1.245,0.881,0.402,0.708,0.671,�k�k��,7.7,��
2019/11/28,23:50,0.694,1.007,0.675,1.248,0.878,0.401,0.709,0.673,�k�k��,7.1,��
